Year,Month,Day,Hour,Minute,Value (Times are PST for insolation in W/m^2)
2009,10,31,00,00,0.00
2009,10,31,00,01,0.00
2009,10,31,00,02,0.00
2009,10,31,00,03,0.00
2009,10,31,00,04,0.00
2009,10,31,00,05,0.00
2009,10,31,00,06,0.00
2009,10,31,00,07,0.00
2009,10,31,00,08,0.00
2009,10,31,00,09,0.00
2009,10,31,00,10,0.00
2009,10,31,00,11,0.00
2009,10,31,00,12,0.00
2009,10,31,00,13,0.00
2009,10,31,00,14,0.00
2009,10,31,00,15,0.00
2009,10,31,00,16,0.00
2009,10,31,00,17,0.00
2009,10,31,00,18,0.00
2009,10,31,00,19,0.00
2009,10,31,00,20,0.00
2009,10,31,00,21,0.00
2009,10,31,00,22,0.00
2009,10,31,00,23,0.00
2009,10,31,00,24,0.00
2009,10,31,00,25,0.00
2009,10,31,00,26,0.00
2009,10,31,00,27,0.00
2009,10,31,00,28,0.00
2009,10,31,00,29,0.00
2009,10,31,00,30,0.00
2009,10,31,00,31,0.00
2009,10,31,00,32,0.00
2009,10,31,00,33,0.00
2009,10,31,00,34,0.00
2009,10,31,00,35,0.00
2009,10,31,00,36,0.00
2009,10,31,00,37,0.00
2009,10,31,00,38,0.00
2009,10,31,00,39,0.00
2009,10,31,00,40,0.00
2009,10,31,00,41,0.00
2009,10,31,00,42,0.00
2009,10,31,00,43,0.00
2009,10,31,00,44,0.00
2009,10,31,00,45,0.00
2009,10,31,00,46,0.00
2009,10,31,00,47,0.00
2009,10,31,00,48,0.00
2009,10,31,00,49,0.00
2009,10,31,00,50,0.00
2009,10,31,00,51,0.00
2009,10,31,00,52,0.00
2009,10,31,00,53,0.00
2009,10,31,00,54,0.00
2009,10,31,00,55,0.00
2009,10,31,00,56,0.00
2009,10,31,00,57,0.00
2009,10,31,00,58,0.00
2009,10,31,00,59,0.00
2009,10,31,01,00,0.00
2009,10,31,01,01,0.00
2009,10,31,01,02,0.00
2009,10,31,01,03,0.00
2009,10,31,01,04,0.00
2009,10,31,01,05,0.00
2009,10,31,01,06,0.00
2009,10,31,01,07,0.00
2009,10,31,01,08,0.00
2009,10,31,01,09,0.00
2009,10,31,01,10,0.00
2009,10,31,01,11,0.00
2009,10,31,01,12,0.00
2009,10,31,01,13,0.00
2009,10,31,01,14,0.00
2009,10,31,01,15,0.00
2009,10,31,01,16,0.00
2009,10,31,01,17,0.00
2009,10,31,01,18,0.00
2009,10,31,01,19,0.00
2009,10,31,01,20,0.00
2009,10,31,01,21,0.00
2009,10,31,01,22,0.00
2009,10,31,01,23,0.00
2009,10,31,01,24,0.00
2009,10,31,01,25,0.00
2009,10,31,01,26,0.00
2009,10,31,01,27,0.00
2009,10,31,01,28,0.00
2009,10,31,01,29,0.00
2009,10,31,01,30,0.00
2009,10,31,01,31,0.00
2009,10,31,01,32,0.00
2009,10,31,01,33,0.00
2009,10,31,01,34,0.00
2009,10,31,01,35,0.00
2009,10,31,01,36,0.00
2009,10,31,01,37,0.00
2009,10,31,01,38,0.00
2009,10,31,01,39,0.00
2009,10,31,01,40,0.00
2009,10,31,01,41,0.00
2009,10,31,01,42,0.00
2009,10,31,01,43,0.00
2009,10,31,01,44,0.00
2009,10,31,01,45,0.00
2009,10,31,01,46,0.00
2009,10,31,01,47,0.00
2009,10,31,01,48,0.00
2009,10,31,01,49,0.00
2009,10,31,01,50,0.00
2009,10,31,01,51,0.00
2009,10,31,01,52,0.00
2009,10,31,01,53,0.00
2009,10,31,01,54,0.00
2009,10,31,01,55,0.00
2009,10,31,01,56,0.00
2009,10,31,01,57,0.00
2009,10,31,01,58,0.00
2009,10,31,01,59,0.00
2009,10,31,02,00,0.00
2009,10,31,02,01,0.00
2009,10,31,02,02,0.00
2009,10,31,02,03,0.00
2009,10,31,02,04,0.00
2009,10,31,02,05,0.00
2009,10,31,02,06,0.00
2009,10,31,02,07,0.00
2009,10,31,02,08,0.00
2009,10,31,02,09,0.00
2009,10,31,02,10,0.00
2009,10,31,02,11,0.00
2009,10,31,02,12,0.00
2009,10,31,02,13,0.00
2009,10,31,02,14,0.00
2009,10,31,02,15,0.00
2009,10,31,02,16,0.00
2009,10,31,02,17,0.00
2009,10,31,02,18,0.00
2009,10,31,02,19,0.00
2009,10,31,02,20,0.00
2009,10,31,02,21,0.00
2009,10,31,02,22,0.00
2009,10,31,02,23,0.00
2009,10,31,02,24,0.00
2009,10,31,02,25,0.00
2009,10,31,02,26,0.00
2009,10,31,02,27,0.00
2009,10,31,02,28,0.00
2009,10,31,02,29,0.00
2009,10,31,02,30,0.00
2009,10,31,02,31,0.00
2009,10,31,02,32,0.00
2009,10,31,02,33,0.00
2009,10,31,02,34,0.00
2009,10,31,02,35,0.00
2009,10,31,02,36,0.00
2009,10,31,02,37,0.00
2009,10,31,02,38,0.00
2009,10,31,02,39,0.00
2009,10,31,02,40,0.00
2009,10,31,02,41,0.00
2009,10,31,02,42,0.00
2009,10,31,02,43,0.00
2009,10,31,02,44,0.00
2009,10,31,02,45,0.00
2009,10,31,02,46,0.00
2009,10,31,02,47,0.00
2009,10,31,02,48,0.00
2009,10,31,02,49,0.00
2009,10,31,02,50,0.00
2009,10,31,02,51,0.00
2009,10,31,02,52,0.00
2009,10,31,02,53,0.00
2009,10,31,02,54,0.00
2009,10,31,02,55,0.00
2009,10,31,02,56,0.00
2009,10,31,02,57,0.00
2009,10,31,02,58,0.00
2009,10,31,02,59,0.00
2009,10,31,03,00,0.00
2009,10,31,03,01,0.00
2009,10,31,03,02,0.00
2009,10,31,03,03,0.00
2009,10,31,03,04,0.00
2009,10,31,03,05,0.00
2009,10,31,03,06,0.00
2009,10,31,03,07,0.00
2009,10,31,03,08,0.00
2009,10,31,03,09,0.00
2009,10,31,03,10,0.00
2009,10,31,03,11,0.00
2009,10,31,03,12,0.00
2009,10,31,03,13,0.00
2009,10,31,03,14,0.00
2009,10,31,03,15,0.00
2009,10,31,03,16,0.00
2009,10,31,03,17,0.00
2009,10,31,03,18,0.00
2009,10,31,03,19,0.00
2009,10,31,03,20,0.00
2009,10,31,03,21,0.00
2009,10,31,03,22,0.00
2009,10,31,03,23,0.00
2009,10,31,03,24,0.00
2009,10,31,03,25,0.00
2009,10,31,03,26,0.00
2009,10,31,03,27,0.00
2009,10,31,03,28,0.00
2009,10,31,03,29,0.00
2009,10,31,03,30,0.00
2009,10,31,03,31,0.00
2009,10,31,03,32,0.00
2009,10,31,03,33,0.00
2009,10,31,03,34,0.00
2009,10,31,03,35,0.00
2009,10,31,03,36,0.00
2009,10,31,03,37,0.00
2009,10,31,03,38,0.00
2009,10,31,03,39,0.00
2009,10,31,03,40,0.00
2009,10,31,03,41,0.00
2009,10,31,03,42,0.00
2009,10,31,03,43,0.00
2009,10,31,03,44,0.00
2009,10,31,03,45,0.00
2009,10,31,03,46,0.00
2009,10,31,03,47,0.00
2009,10,31,03,48,0.00
2009,10,31,03,49,0.00
2009,10,31,03,50,0.00
2009,10,31,03,51,0.00
2009,10,31,03,52,0.00
2009,10,31,03,53,0.00
2009,10,31,03,54,0.00
2009,10,31,03,55,0.00
2009,10,31,03,56,0.00
2009,10,31,03,57,0.00
2009,10,31,03,58,0.00
2009,10,31,03,59,0.00
2009,10,31,04,00,0.00
2009,10,31,04,01,0.00
2009,10,31,04,02,0.00
2009,10,31,04,03,0.00
2009,10,31,04,04,0.00
2009,10,31,04,05,0.00
2009,10,31,04,06,0.00
2009,10,31,04,07,0.00
2009,10,31,04,08,0.00
2009,10,31,04,09,0.00
2009,10,31,04,10,0.00
2009,10,31,04,11,0.00
2009,10,31,04,12,0.00
2009,10,31,04,13,0.00
2009,10,31,04,14,0.00
2009,10,31,04,15,0.00
2009,10,31,04,16,0.00
2009,10,31,04,17,0.00
2009,10,31,04,18,0.00
2009,10,31,04,19,0.00
2009,10,31,04,20,0.00
2009,10,31,04,21,0.00
2009,10,31,04,22,0.00
2009,10,31,04,23,0.00
2009,10,31,04,24,0.00
2009,10,31,04,25,0.00
2009,10,31,04,26,0.00
2009,10,31,04,27,0.00
2009,10,31,04,28,0.00
2009,10,31,04,29,0.00
2009,10,31,04,30,0.00
2009,10,31,04,31,0.00
2009,10,31,04,32,0.00
2009,10,31,04,33,0.00
2009,10,31,04,34,0.00
2009,10,31,04,35,0.00
2009,10,31,04,36,0.00
2009,10,31,04,37,0.00
2009,10,31,04,38,0.00
2009,10,31,04,39,0.00
2009,10,31,04,40,0.00
2009,10,31,04,41,0.00
2009,10,31,04,42,0.00
2009,10,31,04,43,0.00
2009,10,31,04,44,0.00
2009,10,31,04,45,0.00
2009,10,31,04,46,0.00
2009,10,31,04,47,0.00
2009,10,31,04,48,0.00
2009,10,31,04,49,0.00
2009,10,31,04,50,0.00
2009,10,31,04,51,0.00
2009,10,31,04,52,0.00
2009,10,31,04,53,0.00
2009,10,31,04,54,0.00
2009,10,31,04,55,0.00
2009,10,31,04,56,0.00
2009,10,31,04,57,0.00
2009,10,31,04,58,0.00
2009,10,31,04,59,0.00
2009,10,31,05,00,0.00
2009,10,31,05,01,0.00
2009,10,31,05,02,0.00
2009,10,31,05,03,0.00
2009,10,31,05,04,0.00
2009,10,31,05,05,0.00
2009,10,31,05,06,0.00
2009,10,31,05,07,0.00
2009,10,31,05,08,0.00
2009,10,31,05,09,0.00
2009,10,31,05,10,0.00
2009,10,31,05,11,0.00
2009,10,31,05,12,0.00
2009,10,31,05,13,0.00
2009,10,31,05,14,0.00
2009,10,31,05,15,0.00
2009,10,31,05,16,0.00
2009,10,31,05,17,0.00
2009,10,31,05,18,0.00
2009,10,31,05,19,0.00
2009,10,31,05,20,0.00
2009,10,31,05,21,0.00
2009,10,31,05,22,0.00
2009,10,31,05,23,0.00
2009,10,31,05,24,0.00
2009,10,31,05,25,0.00
2009,10,31,05,26,0.00
2009,10,31,05,27,0.00
2009,10,31,05,28,0.00
2009,10,31,05,29,0.00
2009,10,31,05,30,0.00
2009,10,31,05,31,0.00
2009,10,31,05,32,0.00
2009,10,31,05,33,0.00
2009,10,31,05,34,0.00
2009,10,31,05,35,0.00
2009,10,31,05,36,0.00
2009,10,31,05,37,0.00
2009,10,31,05,38,0.00
2009,10,31,05,39,0.00
2009,10,31,05,40,0.00
2009,10,31,05,41,0.00
2009,10,31,05,42,0.00
2009,10,31,05,43,0.00
2009,10,31,05,44,0.00
2009,10,31,05,45,0.00
2009,10,31,05,46,0.00
2009,10,31,05,47,0.00
2009,10,31,05,48,0.00
2009,10,31,05,49,0.00
2009,10,31,05,50,0.00
2009,10,31,05,51,0.00
2009,10,31,05,52,0.00
2009,10,31,05,53,0.00
2009,10,31,05,54,0.00
2009,10,31,05,55,0.00
2009,10,31,05,56,0.00
2009,10,31,05,57,0.00
2009,10,31,05,58,0.00
2009,10,31,05,59,0.00
2009,10,31,06,00,0.00
2009,10,31,06,01,0.00
2009,10,31,06,02,0.00
2009,10,31,06,03,0.00
2009,10,31,06,04,0.00
2009,10,31,06,05,0.00
2009,10,31,06,06,0.00
2009,10,31,06,07,0.00
2009,10,31,06,08,0.00
2009,10,31,06,09,0.00
2009,10,31,06,10,0.00
2009,10,31,06,11,0.00
2009,10,31,06,12,0.00
2009,10,31,06,13,0.00
2009,10,31,06,14,0.00
2009,10,31,06,15,0.00
2009,10,31,06,16,0.00
2009,10,31,06,17,0.00
2009,10,31,06,18,0.00
2009,10,31,06,19,0.00
2009,10,31,06,20,0.00
2009,10,31,06,21,0.00
2009,10,31,06,22,0.00
2009,10,31,06,23,0.00
2009,10,31,06,24,0.00
2009,10,31,06,25,0.00
2009,10,31,06,26,0.00
2009,10,31,06,27,0.00
2009,10,31,06,28,0.00
2009,10,31,06,29,0.00
2009,10,31,06,30,0.00
2009,10,31,06,31,0.00
2009,10,31,06,32,0.00
2009,10,31,06,33,0.00
2009,10,31,06,34,0.00
2009,10,31,06,35,0.00
2009,10,31,06,36,0.00
2009,10,31,06,37,0.00
2009,10,31,06,38,0.00
2009,10,31,06,39,0.00
2009,10,31,06,40,0.00
2009,10,31,06,41,0.00
2009,10,31,06,42,0.00
2009,10,31,06,43,0.00
2009,10,31,06,44,0.00
2009,10,31,06,45,0.00
2009,10,31,06,46,0.00
2009,10,31,06,47,0.00
2009,10,31,06,48,0.00
2009,10,31,06,49,0.00
2009,10,31,06,50,0.00
2009,10,31,06,51,0.00
2009,10,31,06,52,0.00
2009,10,31,06,53,0.00
2009,10,31,06,54,0.00
2009,10,31,06,55,0.00
2009,10,31,06,56,0.00
2009,10,31,06,57,0.00
2009,10,31,06,58,0.00
2009,10,31,06,59,0.00
2009,10,31,07,00,0.00
2009,10,31,07,01,0.00
2009,10,31,07,02,0.00
2009,10,31,07,03,0.00
2009,10,31,07,04,0.00
2009,10,31,07,05,0.00
2009,10,31,07,06,0.00
2009,10,31,07,07,0.00
2009,10,31,07,08,0.00
2009,10,31,07,09,0.00
2009,10,31,07,10,0.00
2009,10,31,07,11,0.00
2009,10,31,07,12,0.00
2009,10,31,07,13,0.00
2009,10,31,07,14,0.00
2009,10,31,07,15,0.00
2009,10,31,07,16,0.00
2009,10,31,07,17,0.00
2009,10,31,07,18,0.00
2009,10,31,07,19,0.00
2009,10,31,07,20,0.00
2009,10,31,07,21,0.00
2009,10,31,07,22,0.00
2009,10,31,07,23,0.00
2009,10,31,07,24,0.00
2009,10,31,07,25,0.00
2009,10,31,07,26,0.00
2009,10,31,07,27,0.00
2009,10,31,07,28,0.00
2009,10,31,07,29,0.00
2009,10,31,07,30,0.00
2009,10,31,07,31,0.00
2009,10,31,07,32,0.00
2009,10,31,07,33,0.00
2009,10,31,07,34,0.00
2009,10,31,07,35,0.00
2009,10,31,07,36,0.00
2009,10,31,07,37,0.00
2009,10,31,07,38,0.00
2009,10,31,07,39,0.00
2009,10,31,07,40,0.00
2009,10,31,07,41,0.00
2009,10,31,07,42,0.00
2009,10,31,07,43,0.00
2009,10,31,07,44,0.00
2009,10,31,07,45,0.00
2009,10,31,07,46,0.00
2009,10,31,07,47,0.00
2009,10,31,07,48,0.00
2009,10,31,07,49,0.00
2009,10,31,07,50,0.00
2009,10,31,07,51,0.00
2009,10,31,07,52,0.00
2009,10,31,07,53,0.00
2009,10,31,07,54,0.00
2009,10,31,07,55,0.00
2009,10,31,07,56,0.00
2009,10,31,07,57,0.00
2009,10,31,07,58,0.00
2009,10,31,07,59,0.00
2009,10,31,08,00,0.00
2009,10,31,08,01,0.00
2009,10,31,08,02,1.00
2009,10,31,08,03,5.00
2009,10,31,08,04,5.00
2009,10,31,08,05,5.00
2009,10,31,08,06,5.00
2009,10,31,08,07,5.10
2009,10,31,08,08,7.00
2009,10,31,08,09,7.00
2009,10,31,08,10,7.00
2009,10,31,08,11,8.40
2009,10,31,08,12,9.00
2009,10,31,08,13,9.00
2009,10,31,08,14,9.50
2009,10,31,08,15,11.00
2009,10,31,08,16,11.00
2009,10,31,08,17,11.00
2009,10,31,08,18,11.90
2009,10,31,08,19,12.00
2009,10,31,08,20,12.00
2009,10,31,08,21,12.00
2009,10,31,08,22,13.10
2009,10,31,08,23,14.00
2009,10,31,08,24,14.00
2009,10,31,08,25,14.00
2009,10,31,08,26,14.60
2009,10,31,08,27,16.00
2009,10,31,08,28,16.00
2009,10,31,08,29,16.00
2009,10,31,08,30,16.00
2009,10,31,08,31,16.40
2009,10,31,08,32,18.00
2009,10,31,08,33,18.00
2009,10,31,08,34,18.00
2009,10,31,08,35,18.00
2009,10,31,08,36,18.90
2009,10,31,08,37,18.80
2009,10,31,08,38,18.30
2009,10,31,08,39,19.00
2009,10,31,08,40,19.00
2009,10,31,08,41,19.00
2009,10,31,08,42,19.10
2009,10,31,08,43,21.00
2009,10,31,08,44,21.70
2009,10,31,08,45,23.00
2009,10,31,08,46,23.00
2009,10,31,08,47,23.00
2009,10,31,08,48,23.00
2009,10,31,08,49,23.50
2009,10,31,08,50,25.00
2009,10,31,08,51,25.00
2009,10,31,08,52,25.00
2009,10,31,08,53,25.00
2009,10,31,08,54,25.00
2009,10,31,08,55,25.20
2009,10,31,08,56,26.00
2009,10,31,08,57,26.00
2009,10,31,08,58,26.00
2009,10,31,08,59,26.00
2009,10,31,09,00,26.00
2009,10,31,09,01,26.00
2009,10,31,09,02,26.00
2009,10,31,09,03,27.10
2009,10,31,09,04,28.00
2009,10,31,09,05,28.00
2009,10,31,09,06,28.00
2009,10,31,09,07,28.00
2009,10,31,09,08,29.90
2009,10,31,09,09,33.80
2009,10,31,09,10,35.00
2009,10,31,09,11,32.30
2009,10,31,09,12,30.40
2009,10,31,09,13,32.00
2009,10,31,09,14,35.20
2009,10,31,09,15,40.80
2009,10,31,09,16,40.50
2009,10,31,09,17,35.20
2009,10,31,09,18,32.80
2009,10,31,09,19,32.40
2009,10,31,09,20,33.00
2009,10,31,09,21,36.90
2009,10,31,09,22,39.80
2009,10,31,09,23,39.80
2009,10,31,09,24,36.60
2009,10,31,09,25,35.00
2009,10,31,09,26,33.90
2009,10,31,09,27,35.70
2009,10,31,09,28,38.60
2009,10,31,09,29,40.50
2009,10,31,09,30,45.00
2009,10,31,09,31,40.80
2009,10,31,09,32,37.90
2009,10,31,09,33,39.10
2009,10,31,09,34,39.20
2009,10,31,09,35,37.10
2009,10,31,09,36,37.00
2009,10,31,09,37,37.00
2009,10,31,09,38,37.00
2009,10,31,09,39,38.40
2009,10,31,09,40,39.80
2009,10,31,09,41,37.00
2009,10,31,09,42,37.60
2009,10,31,09,43,39.50
2009,10,31,09,44,48.10
2009,10,31,09,45,72.90
2009,10,31,09,46,63.20
2009,10,31,09,47,53.00
2009,10,31,09,48,56.20
2009,10,31,09,49,81.40
2009,10,31,09,50,104.00
2009,10,31,09,51,199.80
2009,10,31,09,52,238.20
2009,10,31,09,53,239.30
2009,10,31,09,54,241.90
2009,10,31,09,55,245.00
2009,10,31,09,56,247.30
2009,10,31,09,57,250.20
2009,10,31,09,58,253.00
2009,10,31,09,59,257.00
2009,10,31,10,00,257.90
2009,10,31,10,01,260.00
2009,10,31,10,02,261.30
2009,10,31,10,03,263.60
2009,10,31,10,04,265.30
2009,10,31,10,05,269.00
2009,10,31,10,06,269.70
2009,10,31,10,07,271.50
2009,10,31,10,08,273.30
2009,10,31,10,09,277.20
2009,10,31,10,10,279.20
2009,10,31,10,11,282.00
2009,10,31,10,12,285.80
2009,10,31,10,13,287.50
2009,10,31,10,14,290.60
2009,10,31,10,15,292.00
2009,10,31,10,16,295.20
2009,10,31,10,17,299.00
2009,10,31,10,18,300.30
2009,10,31,10,19,303.10
2009,10,31,10,20,305.40
2009,10,31,10,21,306.00
2009,10,31,10,22,308.00
2009,10,31,10,23,308.30
2009,10,31,10,24,309.90
2009,10,31,10,25,312.20
2009,10,31,10,26,314.50
2009,10,31,10,27,315.90
2009,10,31,10,28,318.00
2009,10,31,10,29,318.60
2009,10,31,10,30,321.40
2009,10,31,10,31,323.00
2009,10,31,10,32,324.50
2009,10,31,10,33,328.60
2009,10,31,10,34,330.30
2009,10,31,10,35,332.70
2009,10,31,10,36,334.90
2009,10,31,10,37,337.20
2009,10,31,10,38,338.80
2009,10,31,10,39,331.30
2009,10,31,10,40,342.20
2009,10,31,10,41,339.00
2009,10,31,10,42,212.50
2009,10,31,10,43,89.00
2009,10,31,10,44,153.20
2009,10,31,10,45,193.30
2009,10,31,10,46,367.00
2009,10,31,10,47,367.00
2009,10,31,10,48,369.00
2009,10,31,10,49,373.10
2009,10,31,10,50,379.60
2009,10,31,10,51,385.20
2009,10,31,10,52,344.00
2009,10,31,10,53,323.20
2009,10,31,10,54,376.00
2009,10,31,10,55,376.00
2009,10,31,10,56,385.60
2009,10,31,10,57,381.40
2009,10,31,10,58,379.70
2009,10,31,10,59,377.60
2009,10,31,11,00,380.50
2009,10,31,11,01,382.50
2009,10,31,11,02,383.00
2009,10,31,11,03,385.20
2009,10,31,11,04,386.50
2009,10,31,11,05,385.80
2009,10,31,11,06,388.60
2009,10,31,11,07,394.20
2009,10,31,11,08,396.90
2009,10,31,11,09,394.50
2009,10,31,11,10,397.00
2009,10,31,11,11,397.90
2009,10,31,11,12,399.00
2009,10,31,11,13,400.40
2009,10,31,11,14,399.50
2009,10,31,11,15,403.00
2009,10,31,11,16,403.30
2009,10,31,11,17,404.00
2009,10,31,11,18,404.00
2009,10,31,11,19,404.00
2009,10,31,11,20,407.70
2009,10,31,11,21,410.20
2009,10,31,11,22,410.60
2009,10,31,11,23,410.00
2009,10,31,11,24,411.80
2009,10,31,11,25,413.00
2009,10,31,11,26,413.00
2009,10,31,11,27,413.80
2009,10,31,11,28,418.00
2009,10,31,11,29,419.00
2009,10,31,11,30,422.80
2009,10,31,11,31,422.60
2009,10,31,11,32,424.00
2009,10,31,11,33,426.00
2009,10,31,11,34,428.20
2009,10,31,11,35,429.20
2009,10,31,11,36,426.80
2009,10,31,11,37,430.90
2009,10,31,11,38,429.10
2009,10,31,11,39,430.20
2009,10,31,11,40,434.00
2009,10,31,11,41,435.20
2009,10,31,11,42,438.00
2009,10,31,11,43,440.70
2009,10,31,11,44,445.10
2009,10,31,11,45,445.10
2009,10,31,11,46,445.90
2009,10,31,11,47,452.20
2009,10,31,11,48,454.00
2009,10,31,11,49,452.20
2009,10,31,11,50,454.00
2009,10,31,11,51,454.90
2009,10,31,11,52,456.10
2009,10,31,11,53,456.20
2009,10,31,11,54,457.00
2009,10,31,11,55,458.90
2009,10,31,11,56,461.20
2009,10,31,11,57,462.00
2009,10,31,11,58,463.90
2009,10,31,11,59,466.00
2009,10,31,12,00,464.50
2009,10,31,12,01,467.60
2009,10,31,12,02,468.00
2009,10,31,12,03,468.00
2009,10,31,12,04,469.40
2009,10,31,12,05,469.80
2009,10,31,12,06,469.00
2009,10,31,12,07,469.00
2009,10,31,12,08,469.00
2009,10,31,12,09,469.00
2009,10,31,12,10,469.00
2009,10,31,12,11,469.00
2009,10,31,12,12,472.20
2009,10,31,12,13,471.00
2009,10,31,12,14,469.50
2009,10,31,12,15,473.00
2009,10,31,12,16,474.40
2009,10,31,12,17,475.10
2009,10,31,12,18,473.60
2009,10,31,12,19,474.90
2009,10,31,12,20,475.00
2009,10,31,12,21,475.00
2009,10,31,12,22,476.60
2009,10,31,12,23,476.60
2009,10,31,12,24,476.00
2009,10,31,12,25,476.00
2009,10,31,12,26,476.00
2009,10,31,12,27,478.70
2009,10,31,12,28,482.60
2009,10,31,12,29,482.30
2009,10,31,12,30,482.00
2009,10,31,12,31,483.00
2009,10,31,12,32,482.70
2009,10,31,12,33,482.50
2009,10,31,12,34,483.00
2009,10,31,12,35,483.00
2009,10,31,12,36,483.00
2009,10,31,12,37,483.00
2009,10,31,12,38,483.00
2009,10,31,12,39,483.00
2009,10,31,12,40,483.00
2009,10,31,12,41,483.00
2009,10,31,12,42,483.00
2009,10,31,12,43,483.40
2009,10,31,12,44,485.00
2009,10,31,12,45,484.00
2009,10,31,12,46,484.30
2009,10,31,12,47,485.00
2009,10,31,12,48,485.00
2009,10,31,12,49,485.00
2009,10,31,12,50,485.00
2009,10,31,12,51,485.00
2009,10,31,12,52,483.70
2009,10,31,12,53,482.20
2009,10,31,12,54,482.00
2009,10,31,12,55,482.00
2009,10,31,12,56,481.20
2009,10,31,12,57,480.00
2009,10,31,12,58,481.40
2009,10,31,12,59,482.00
2009,10,31,13,00,482.00
2009,10,31,13,01,482.00
2009,10,31,13,02,482.00
2009,10,31,13,03,480.90
2009,10,31,13,04,480.00
2009,10,31,13,05,482.50
2009,10,31,13,06,482.00
2009,10,31,13,07,481.40
2009,10,31,13,08,480.00
2009,10,31,13,09,481.60
2009,10,31,13,10,482.20
2009,10,31,13,11,482.90
2009,10,31,13,12,482.90
2009,10,31,13,13,482.00
2009,10,31,13,14,481.10
2009,10,31,13,15,480.00
2009,10,31,13,16,480.00
2009,10,31,13,17,478.20
2009,10,31,13,18,477.70
2009,10,31,13,19,476.00
2009,10,31,13,20,476.00
2009,10,31,13,21,476.00
2009,10,31,13,22,477.50
2009,10,31,13,23,476.20
2009,10,31,13,24,476.00
2009,10,31,13,25,476.00
2009,10,31,13,26,476.00
2009,10,31,13,27,474.10
2009,10,31,13,28,473.00
2009,10,31,13,29,473.00
2009,10,31,13,30,472.60
2009,10,31,13,31,471.00
2009,10,31,13,32,472.00
2009,10,31,13,33,471.60
2009,10,31,13,34,472.50
2009,10,31,13,35,471.00
2009,10,31,13,36,472.10
2009,10,31,13,37,475.00
2009,10,31,13,38,475.50
2009,10,31,13,39,476.00
2009,10,31,13,40,477.60
2009,10,31,13,41,476.60
2009,10,31,13,42,479.50
2009,10,31,13,43,478.80
2009,10,31,13,44,477.60
2009,10,31,13,45,473.80
2009,10,31,13,46,468.80
2009,10,31,13,47,466.00
2009,10,31,13,48,466.00
2009,10,31,13,49,465.20
2009,10,31,13,50,465.10
2009,10,31,13,51,466.00
2009,10,31,13,52,466.00
2009,10,31,13,53,464.30
2009,10,31,13,54,466.00
2009,10,31,13,55,466.00
2009,10,31,13,56,463.40
2009,10,31,13,57,463.50
2009,10,31,13,58,465.70
2009,10,31,13,59,463.20
2009,10,31,14,00,458.40
2009,10,31,14,01,457.00
2009,10,31,14,02,455.80
2009,10,31,14,03,455.00
2009,10,31,14,04,455.00
2009,10,31,14,05,454.80
2009,10,31,14,06,452.60
2009,10,31,14,07,447.50
2009,10,31,14,08,443.70
2009,10,31,14,09,444.60
2009,10,31,14,10,443.10
2009,10,31,14,11,444.00
2009,10,31,14,12,448.70
2009,10,31,14,13,453.50
2009,10,31,14,14,461.50
2009,10,31,14,15,471.60
2009,10,31,14,16,479.00
2009,10,31,14,17,470.80
2009,10,31,14,18,458.40
2009,10,31,14,19,443.40
2009,10,31,14,20,433.80
2009,10,31,14,21,431.10
2009,10,31,14,22,431.00
2009,10,31,14,23,430.50
2009,10,31,14,24,429.00
2009,10,31,14,25,429.00
2009,10,31,14,26,427.60
2009,10,31,14,27,427.00
2009,10,31,14,28,424.00
2009,10,31,14,29,422.90
2009,10,31,14,30,420.00
2009,10,31,14,31,418.90
2009,10,31,14,32,418.00
2009,10,31,14,33,417.20
2009,10,31,14,34,418.00
2009,10,31,14,35,417.10
2009,10,31,14,36,414.10
2009,10,31,14,37,413.00
2009,10,31,14,38,411.50
2009,10,31,14,39,410.10
2009,10,31,14,40,409.20
2009,10,31,14,41,406.00
2009,10,31,14,42,405.10
2009,10,31,14,43,402.20
2009,10,31,14,44,402.50
2009,10,31,14,45,401.00
2009,10,31,14,46,398.60
2009,10,31,14,47,397.00
2009,10,31,14,48,396.50
2009,10,31,14,49,394.70
2009,10,31,14,50,394.00
2009,10,31,14,51,392.00
2009,10,31,14,52,389.50
2009,10,31,14,53,388.00
2009,10,31,14,54,388.00
2009,10,31,14,55,387.40
2009,10,31,14,56,385.30
2009,10,31,14,57,382.90
2009,10,31,14,58,380.70
2009,10,31,14,59,380.00
2009,10,31,15,00,379.00
2009,10,31,15,01,376.70
2009,10,31,15,02,374.30
2009,10,31,15,03,373.00
2009,10,31,15,04,372.40
2009,10,31,15,05,371.00
2009,10,31,15,06,369.90
2009,10,31,15,07,369.00
2009,10,31,15,08,369.00
2009,10,31,15,09,366.50
2009,10,31,15,10,363.40
2009,10,31,15,11,362.00
2009,10,31,15,12,362.00
2009,10,31,15,13,360.60
2009,10,31,15,14,360.00
2009,10,31,15,15,357.00
2009,10,31,15,16,355.80
2009,10,31,15,17,352.50
2009,10,31,15,18,352.00
2009,10,31,15,19,352.00
2009,10,31,15,20,350.00
2009,10,31,15,21,346.00
2009,10,31,15,22,345.60
2009,10,31,15,23,344.00
2009,10,31,15,24,341.70
2009,10,31,15,25,342.50
2009,10,31,15,26,341.30
2009,10,31,15,27,343.40
2009,10,31,15,28,345.00
2009,10,31,15,29,343.00
2009,10,31,15,30,341.00
2009,10,31,15,31,342.60
2009,10,31,15,32,346.20
2009,10,31,15,33,350.60
2009,10,31,15,34,353.00
2009,10,31,15,35,352.50
2009,10,31,15,36,348.10
2009,10,31,15,37,339.20
2009,10,31,15,38,330.10
2009,10,31,15,39,327.50
2009,10,31,15,40,329.40
2009,10,31,15,41,333.30
2009,10,31,15,42,338.10
2009,10,31,15,43,330.50
2009,10,31,15,44,329.00
2009,10,31,15,45,333.80
2009,10,31,15,46,343.20
2009,10,31,15,47,336.00
2009,10,31,15,48,336.00
2009,10,31,15,49,330.30
2009,10,31,15,50,329.20
2009,10,31,15,51,324.40
2009,10,31,15,52,321.60
2009,10,31,15,53,320.00
2009,10,31,15,54,304.50
2009,10,31,15,55,288.80
2009,10,31,15,56,277.10
2009,10,31,15,57,270.50
2009,10,31,15,58,265.60
2009,10,31,15,59,262.80
2009,10,31,16,00,260.50
2009,10,31,16,01,260.00
2009,10,31,16,02,258.40
2009,10,31,16,03,250.90
2009,10,31,16,04,236.50
2009,10,31,16,05,251.60
2009,10,31,16,06,258.50
2009,10,31,16,07,263.20
2009,10,31,16,08,258.00
2009,10,31,16,09,247.60
2009,10,31,16,10,234.60
2009,10,31,16,11,188.00
2009,10,31,16,12,223.00
2009,10,31,16,13,220.90
2009,10,31,16,14,220.00
2009,10,31,16,15,220.40
2009,10,31,16,16,202.60
2009,10,31,16,17,186.00
2009,10,31,16,18,83.60
2009,10,31,16,19,53.30
2009,10,31,16,20,54.50
2009,10,31,16,21,61.50
2009,10,31,16,22,116.80
2009,10,31,16,23,90.20
2009,10,31,16,24,70.50
2009,10,31,16,25,67.20
2009,10,31,16,26,67.50
2009,10,31,16,27,61.00
2009,10,31,16,28,59.10
2009,10,31,16,29,60.00
2009,10,31,16,30,166.20
2009,10,31,16,31,182.70
2009,10,31,16,32,181.00
2009,10,31,16,33,181.00
2009,10,31,16,34,179.90
2009,10,31,16,35,178.30
2009,10,31,16,36,177.90
2009,10,31,16,37,175.40
2009,10,31,16,38,170.50
2009,10,31,16,39,165.10
2009,10,31,16,40,162.40
2009,10,31,16,41,162.00
2009,10,31,16,42,156.60
2009,10,31,16,43,154.20
2009,10,31,16,44,150.40
2009,10,31,16,45,148.60
2009,10,31,16,46,146.80
2009,10,31,16,47,146.00
2009,10,31,16,48,144.10
2009,10,31,16,49,141.80
2009,10,31,16,50,140.30
2009,10,31,16,51,137.90
2009,10,31,16,52,135.10
2009,10,31,16,53,132.40
2009,10,31,16,54,128.20
2009,10,31,16,55,127.20
2009,10,31,16,56,124.30
2009,10,31,16,57,121.50
2009,10,31,16,58,118.70
2009,10,31,16,59,116.40
2009,10,31,17,00,113.80
2009,10,31,17,01,109.20
2009,10,31,17,02,96.80
2009,10,31,17,03,75.60
2009,10,31,17,04,56.10
2009,10,31,17,05,41.30
2009,10,31,17,06,33.20
2009,10,31,17,07,35.50
2009,10,31,17,08,36.20
2009,10,31,17,09,35.00
2009,10,31,17,10,36.40
2009,10,31,17,11,39.50
2009,10,31,17,12,50.70
2009,10,31,17,13,46.20
2009,10,31,17,14,36.40
2009,10,31,17,15,29.70
2009,10,31,17,16,26.50
2009,10,31,17,17,26.00
2009,10,31,17,18,26.00
2009,10,31,17,19,26.00
2009,10,31,17,20,26.00
2009,10,31,17,21,26.00
2009,10,31,17,22,26.00